SA3PJN-WX Weather Reports


time (UTC)temp
C
wind
direction
speed
KPH
gust
KPH
rain 1hr
cm
rain 24hr
cm
rain mn
cm
humidity
%
barometer
mb
20260902003008 8 356 3.2 4.8 0.00 0.00 0.00 87 960.6
20260902002508 8 330 3.2 8.0 0.00 0.00 0.00 87 960.7
20260902002008 8 317 3.2 8.0 0.00 0.00 0.00 86 960.7
20260902001508 8 340 3.2 8.0 0.00 0.00 0.00 86 960.7
20260902001008 8 348 3.2 8.0 0.00 0.00 0.00 87 960.7
20260902000508 8 345 3.2 8.0 0.00 0.00 0.00 87 960.7
20260902000007 9 350 4.8 8.0 0.00 0.00 0.00 87 960.9
20260901235507 8 326 3.2 8.0 0.00 0.00 0.00 87 960.8
20260901235007 8 347 3.2 6.4 0.00 0.00 0.00 87 961.0
20260901234507 8 15 3.2 8.0 0.00 0.00 0.00 87 961.2
20260901234007 9 8 4.8 9.7 0.00 0.00 0.00 87 961.1
20260901233507 9 56 6.4 9.7 0.00 0.00 0.00 87 961.2
20260901233007 9 63 6.4 11.3 0.00 0.00 0.00 87 961.2
20260901232507 9 57 6.4 11.3 0.00 0.00 0.00 87 961.2
20260901232007 9 75 4.8 9.7 0.00 0.00 0.00 87 961.2
20260901231507 9 31 3.2 9.7 0.00 0.00 0.00 88 961.2
20260901231007 9 30 3.2 8.0 0.00 0.00 0.00 89 961.2
20260901230507 9 353 3.2 9.7 0.00 0.00 0.00 90 961.2
20260901230007 9 5 3.2 14.5 0.00 0.00 0.00 90 961.2
20260901225507 9 35 3.2 14.5 0.00 0.00 0.00 91 961.2
20260901225007 9 4 3.2 9.7 0.00 0.00 0.00 91 961.2
20260901224506 9 58 3.2 9.7 0.00 0.00 0.00 91 961.3
20260901224006 9 59 3.2 8.0 0.00 0.00 0.00 91 961.3
20260901223506 9 352 3.2 8.0 0.00 0.00 0.00 92 961.4
20260901223006 9 52 3.2 8.0 0.00 0.00 0.00 93 961.4
20260901222506 9 87 3.2 9.7 0.00 0.00 0.00 94 961.3
20260901222006 9 54 3.2 9.7 0.00 0.00 0.00 94 961.4
20260901221506 9 16 3.2 8.0 0.00 0.00 0.00 93 961.4
20260901221006 9 352 4.8 9.7 0.00 0.00 0.00 91 961.5
20260901220506 9 2 4.8 9.7 0.00 0.00 0.00 89 961.5
20260901220006 9 350 4.8 8.0 0.00 0.00 0.00 87 961.5
20260901215506 10 350 4.8 9.7 0.00 0.00 0.00 87 961.5
20260901215006 10 331 4.8 9.7 0.00 0.00 0.00 85 961.5
20260901214506 10 341 4.8 9.7 0.00 0.00 0.00 85 961.5
20260901214006 10 338 4.8 9.7 0.00 0.00 0.00 85 961.5
20260901213506 10 339 4.8 6.4 0.00 0.00 0.00 85 961.5
20260901213006 10 325 4.8 6.4 0.00 0.00 0.00 84 961.6
20260901212506 10 325 4.8 8.0 0.00 0.00 0.00 85 961.6
20260901212005 10 335 4.8 8.0 0.00 0.00 0.00 84 961.7
20260901211505 10 325 4.8 8.0 0.00 0.00 0.00 85 961.7
20260901211005 10 334 4.8 8.0 0.00 0.00 0.00 84 961.8
20260901210505 10 325 4.8 8.0 0.00 0.00 0.00 84 961.7
20260901210005 10 324 4.8 8.0 0.00 0.00 0.00 84 961.7
20260901205505 10 337 4.8 6.4 0.00 0.00 0.00 84 961.8
20260901205005 10 330 4.8 6.4 0.00 0.00 0.00 85 961.8
20260901204505 10 337 4.8 6.4 0.00 0.00 0.00 85 961.8
20260901204005 10 315 4.8 6.4 0.00 0.00 0.00 85 961.8
20260901203505 10 319 4.8 6.4 0.00 0.00 0.00 85 961.8
20260901203005 10 327 4.8 6.4 0.00 0.00 0.00 85 961.8
20260901202505 10 320 4.8 6.4 0.00 0.00 0.00 85 961.8
20260901202005 10 341 4.8 6.4 0.00 0.00 0.00 85 961.8
20260901201504 10 323 4.8 6.4 0.00 0.00 0.00 84 961.7
20260901201004 10 303 4.8 8.0 0.00 0.00 0.00 84 961.8
20260901200504 10 317 4.8 8.0 0.00 0.00 0.00 84 961.8
20260901200004 10 297 4.8 6.4 0.00 0.00 0.00 84 961.9
20260901195504 10 304 4.8 6.4 0.00 0.00 0.00 85 961.8
20260901195004 10 310 4.8 8.0 0.00 0.00 0.00 85 961.8
20260901194504 10 316 4.8 8.0 0.00 0.00 0.00 83 962.0
20260901194004 10 296 1.6 4.8 0.00 0.00 0.00 84 961.9
20260901193504 11 306 1.6 4.8 0.00 0.00 0.00 85 961.9
20260901193004 11 285 1.6 3.2 0.00 0.00 0.00 85 962.0
20260901192504 11 265 0.0 3.2 0.00 0.00 0.00 86 962.1
20260901192004 11 284 1.6 4.8 0.00 0.00 0.00 84 962.1
20260901191504 11 100 1.6 4.8 0.00 0.00 0.00 87 962.1
20260901191003 11 314 1.6 3.2 0.00 0.00 0.00 84 962.0
20260901190503 11 328 1.6 3.2 0.00 0.00 0.00 84 962.0
20260901190003 11 272 1.6 3.2 0.00 0.00 0.00 85 962.0
20260901185503 11 261 1.6 3.2 0.00 0.00 0.00 84 961.9
20260901185003 11 280 1.6 3.2 0.00 0.00 0.00 82 961.9
20260901184503 11 308 1.6 3.2 0.00 0.00 0.00 82 961.9
20260901184003 11 285 1.6 3.2 0.00 0.00 0.00 81 961.9
20260901183503 11 283 1.6 3.2 0.00 0.00 0.00 80 961.9
20260901183003 12 305 1.6 3.2 0.00 0.00 0.00 79 962.0
20260901182503 12 314 1.6 1.6 0.00 0.00 0.00 80 962.0
20260901182003 12 314 1.6 3.2 0.00 0.00 0.00 80 962.0
20260901181503 12 333 1.6 3.2 0.00 0.00 0.00 80 962.0
20260901181002 12 313 1.6 3.2 0.00 0.00 0.00 79 962.0
20260901180502 12 309 1.6 3.2 0.00 0.00 0.00 81 962.0
20260901180002 12 317 1.6 4.8 0.00 0.00 0.00 77 962.3
20260901175502 12 273 1.6 4.8 0.00 0.00 0.00 76 962.1
20260901175002 13 284 1.6 3.2 0.00 0.00 0.00 75 962.0
20260901174502 13 303 1.6 3.2 0.00 0.00 0.00 75 962.1
20260901174002 13 335 1.6 3.2 0.00 0.00 0.00 73 962.1
20260901173502 13 338 1.6 3.2 0.00 0.00 0.00 73 962.0
20260901173002 14 309 1.6 3.2 0.00 0.00 0.00 70 961.9
20260901172502 14 328 1.6 3.2 0.00 0.00 0.00 70 961.9
20260901172002 14 323 1.6 3.2 0.00 0.00 0.00 72 961.9
20260901171502 14 86 1.6 3.2 0.00 0.00 0.00 68 962.0
20260901171002 14 358 1.6 3.2 0.00 0.00 0.00 68 962.0
20260901170502 14 310 1.6 6.4 0.00 0.00 0.00 69 962.0
20260901170001 14 343 1.6 6.4 0.00 0.00 0.00 68 962.0
20260901165501 15 6 1.6 4.8 0.00 0.00 0.00 67 962.1
20260901165001 15 28 1.6 4.8 0.00 0.00 0.00 68 962.1
20260901164501 15 268 3.2 6.4 0.00 0.00 0.00 66 962.1
20260901164001 15 276 3.2 6.4 0.00 0.00 0.00 66 962.2
20260901163501 15 257 1.6 6.4 0.00 0.00 0.00 65 962.3
20260901163001 15 27 1.6 6.4 0.00 0.00 0.00 67 962.3
20260901162501 15 356 3.2 11.3 0.00 0.00 0.00 65 962.2
20260901162001 15 321 4.8 11.3 0.00 0.00 0.00 66 962.1
20260901161501 15 233 4.8 11.3 0.00 0.00 0.00 66 962.1
20260901161001 15 263 4.8 12.9 0.00 0.00 0.00 67 962.0
20260901160501 15 277 6.4 12.9 0.00 0.00 0.00 67 962.0
20260901160001 15 226 4.8 11.3 0.00 0.00 0.00 65 961.9
20260901155501 15 281 4.8 14.5 0.00 0.00 0.00 66 961.9
20260901155001 15 327 4.8 14.5 0.00 0.00 0.00 66 962.1
20260901154500 15 235 4.8 14.5 0.00 0.00 0.00 66 962.1
20260901154000 15 248 4.8 14.5 0.00 0.00 0.00 64 962.1
20260901153500 15 257 4.8 11.3 0.00 0.00 0.00 65 962.1
20260901153000 15 244 4.8 11.3 0.00 0.00 0.00 64 962.1
20260901152500 15 267 6.4 16.1 0.00 0.00 0.00 63 962.2
20260901152000 15 243 6.4 16.1 0.00 0.00 0.00 65 962.3
20260901151500 15 271 4.8 16.1 0.00 0.00 0.00 63 962.4
20260901151000 15 123 4.8 14.5 0.00 0.00 0.00 63 962.4
20260901150500 15 236 4.8 14.5 0.00 0.00 0.00 65 962.5
20260901150000 15 243 4.8 14.5 0.00 0.00 0.00 63 962.5
20260901145500 15 244 6.4 14.5 0.00 0.00 0.00 63 962.5
20260901145000 16 195 4.8 14.5 0.00 0.00 0.00 61 962.5
20260901144500 16 146 4.8 14.5 0.00 0.00 0.00 61 962.5
20260901144000 16 261 4.8 14.5 0.00 0.00 0.00 60 962.5
20260901143500 16 87 3.2 16.1 0.00 0.00 0.00 57 962.7
20260901143000 16 116 4.8 16.1 0.00 0.00 0.00 57 962.6
20260901142500 16 27 6.4 17.7 0.00 0.00 0.00 57 962.6
20260901142000 16 243 6.4 20.9 0.00 0.00 0.00 58 962.7
20260901141459 16 191 6.4 20.9 0.00 0.00 0.00 58 962.5
20260901140959 15 181 8.0 20.9 0.00 0.00 0.00 59 962.6
20260901140459 15 251 6.4 20.9 0.00 0.00 0.00 60 962.5
20260901135959 16 207 6.4 16.1 0.00 0.00 0.00 58 962.6
20260901135459 16 232 6.4 20.9 0.00 0.00 0.00 60 962.5
20260901134959 16 256 6.4 20.9 0.00 0.00 0.00 58 962.6
20260901134459 16 254 6.4 20.9 0.00 0.00 0.00 55 962.5
20260901133959 16 151 6.4 20.9 0.00 0.00 0.00 56 962.5
20260901133459 16 288 4.8 16.1 0.00 0.00 0.00 57 962.6
20260901132959 17 191 4.8 14.5 0.00 0.00 0.00 57 962.5
20260901132459 16 270 8.0 19.3 0.00 0.00 0.00 57 962.6
20260901131959 16 111 8.0 19.3 0.00 0.00 0.00 57 962.6
20260901131459 16 242 8.0 20.9 0.00 0.00 0.00 57 962.6
20260901130959 16 210 8.0 20.9 0.00 0.00 0.00 57 962.6
20260901130459 16 78 8.0 17.7 0.00 0.00 0.00 60 962.6
20260901125959 16 226 8.0 19.3 0.00 0.00 0.00 58 962.6
20260901125458 15 223 8.0 19.3 0.00 0.00 0.00 59 962.6
20260901124958 16 229 8.0 19.3 0.00 0.00 0.00 59 962.6
20260901124458 16 243 8.0 19.3 0.00 0.00 0.00 61 962.7
20260901123958 15 261 8.0 22.5 0.00 0.00 0.00 60 962.6
20260901123458 16 234 8.0 22.5 0.00 0.00 0.00 57 962.7
20260901122958 16 189 6.4 20.9 0.00 0.00 0.00 59 962.4
20260901122458 16 229 8.0 20.9 0.00 0.00 0.00 59 962.5
20260901121958 15 211 9.7 24.1 0.00 0.00 0.00 60 962.6
20260901121458 15 241 9.7 24.1 0.00 0.00 0.00 61 962.5
20260901120958 15 225 11.3 24.1 0.00 0.00 0.00 61 962.6
20260901120458 15 228 9.7 20.9 0.00 0.00 0.00 62 962.6
20260901115958 15 215 8.0 19.3 0.00 0.00 0.00 61 962.6
20260901115458 15 161 9.7 27.4 0.00 0.00 0.00 62 962.5
20260901114958 15 207 11.3 27.4 0.00 0.00 0.00 62 962.6
20260901114457 15 225 11.3 27.4 0.00 0.00 0.00 63 962.5
20260901113957 15 227 9.7 22.5 0.00 0.00 0.00 63 962.6
20260901113457 15 235 9.7 22.5 0.00 0.00 0.00 61 962.5
20260901112957 15 225 8.0 24.1 0.00 0.00 0.00 61 962.6
20260901112457 15 147 9.7 29.0 0.00 0.00 0.00 63 962.7
20260901111957 15 230 9.7 29.0 0.00 0.00 0.00 63 962.6
20260901111457 15 235 8.0 27.4 0.00 0.00 0.00 62 962.5
20260901110957 15 135 9.7 27.4 0.00 0.00 0.00 64 962.5
20260901110457 14 224 9.7 27.4 0.00 0.00 0.00 63 962.5
20260901105957 14 161 8.0 22.5 0.00 0.00 0.00 64 962.5
20260901105457 14 244 9.7 22.5 0.00 0.00 0.00 63 962.6
20260901104957 14 212 11.3 27.4 0.00 0.00 0.00 65 962.6
20260901104457 14 234 11.3 30.6 0.00 0.00 0.00 65 962.6
20260901103957 14 217 11.3 30.6 0.00 0.00 0.00 67 962.6
20260901103457 14 244 9.7 24.1 0.00 0.00 0.00 66 962.6
20260901102956 14 219 9.7 24.1 0.00 0.00 0.00 66 962.5
20260901102456 14 175 8.0 24.1 0.00 0.00 0.00 66 962.5
20260901101956 14 208 8.0 25.7 0.00 0.00 0.00 65 962.6
20260901101456 14 245 9.7 25.7 0.00 0.00 0.00 67 962.7
20260901100956 13 217 9.7 33.8 0.00 0.00 0.00 67 962.8
20260901100456 14 262 9.7 33.8 0.00 0.00 0.00 69 962.7
20260901095956 14 70 9.7 27.4 0.00 0.00 0.00 68 962.7
20260901095456 13 211 9.7 27.4 0.00 0.00 0.00 67 962.7
20260901094956 14 90 8.0 24.1 0.00 0.00 0.00 70 962.6
20260901094456 13 218 8.0 25.7 0.00 0.00 0.00 69 962.5
20260901093956 13 109 9.7 25.7 0.00 0.00 0.00 70 962.6
20260901093456 12 253 8.0 22.5 0.00 0.00 0.00 70 962.4
20260901092956 13 237 8.0 19.3 0.00 0.00 0.00 71 962.7
20260901092456 13 217 9.7 20.9 0.00 0.00 0.00 71 962.6
20260901091956 13 231 8.0 20.9 0.00 0.00 0.00 67 962.6
20260901091456 14 131 6.4 24.1 0.00 0.00 0.00 70 962.6
20260901090955 13 215 6.4 24.1 0.00 0.00 0.00 68 962.5
20260901090455 14 31 6.4 25.7 0.00 0.00 0.00 72 962.5
20260901085955 13 101 9.7 30.6 0.00 0.00 0.00 72 962.5
20260901085455 12 210 9.7 30.6 0.00 0.00 0.00 70 962.4
20260901084955 13 78 8.0 30.6 0.00 0.00 0.00 73 962.5
20260901084455 13 185 8.0 30.6 0.00 0.00 0.00 70 962.5
20260901083955 13 104 8.0 30.6 0.00 0.00 0.00 72 962.5
20260901083455 13 52 8.0 27.4 0.00 0.00 0.00 73 962.5
20260901082955 13 195 8.0 22.5 0.00 0.00 0.00 70 962.5
20260901082455 13 226 8.0 22.5 0.00 0.00 0.00 73 962.5
20260901081955 13 128 6.4 22.5 0.00 0.00 0.00 71 962.6
20260901081455 13 243 6.4 19.3 0.00 0.00 0.00 71 962.5
20260901080955 13 99 6.4 22.5 0.00 0.00 0.00 70 962.5
20260901080455 13 267 6.4 24.1 0.00 0.00 0.00 72 962.6
20260901075954 12 179 6.4 24.1 0.00 0.00 0.00 74 962.6
20260901075454 13 93 6.4 22.5 0.00 0.00 0.00 72 962.4
20260901074954 12 115 6.4 22.5 0.00 0.00 0.00 76 962.5
20260901074454 12 33 8.0 19.3 0.00 0.00 0.00 74 962.6
20260901073954 12 209 8.0 19.3 0.00 0.00 0.00 76 962.7
20260901073454 12 164 6.4 17.7 0.00 0.00 0.00 75 962.7
20260901072954 12 136 6.4 17.7 0.00 0.00 0.00 74 962.5
20260901072454 12 106 8.0 24.1 0.00 0.00 0.00 74 962.7
20260901071954 12 79 8.0 30.6 0.00 0.00 0.00 76 962.6
20260901071454 12 94 8.0 30.6 0.00 0.00 0.00 74 962.4
20260901070954 12 117 6.4 27.4 0.00 0.00 0.00 76 962.5
20260901070454 12 100 6.4 24.1 0.00 0.00 0.00 77 962.4
20260901065954 12 137 6.4 29.0 0.00 0.00 0.00 78 962.6
20260901065454 12 200 6.4 29.0 0.00 0.00 0.00 77 962.4
20260901064954 12 207 6.4 29.0 0.00 0.00 0.00 77 962.3
20260901064454 12 161 6.4 24.1 0.00 0.00 0.00 79 962.2
20260901063954 11 149 8.0 29.0 0.00 0.00 0.00 80 962.2
20260901063453 11 268 8.0 29.0 0.00 0.00 0.00 78 962.1
20260901062953 11 89 8.0 27.4 0.00 0.00 0.00 78 962.1
20260901062453 11 259 6.4 27.4 0.00 0.00 0.00 80 962.1
20260901061953 11 118 6.4 24.1 0.00 0.00 0.00 81 962.1
20260901061453 11 71 6.4 20.9 0.00 0.00 0.00 81 962.1
20260901060953 11 166 6.4 20.9 0.00 0.00 0.00 82 962.1
20260901060453 11 100 6.4 20.9 0.00 0.00 0.00 84 962.1
20260901055953 11 102 6.4 20.9 0.00 0.00 0.00 84 962.2
20260901055453 11 222 6.4 25.7 0.00 0.00 0.00 85 962.1
20260901054953 11 167 8.0 25.7 0.00 0.00 0.00 85 962.1
20260901054453 10 130 8.0 24.1 0.00 0.00 0.00 87 962.1
20260901053953 10 87 6.4 24.1 0.00 0.00 0.00 88 962.1
20260901053453 10 242 6.4 24.1 0.00 0.00 0.00 88 962.0
20260901052953 10 190 6.4 24.1 0.00 0.00 0.00 90 962.0
20260901052453 10 165 6.4 25.7 0.00 0.00 0.00 90 962.0
20260901051952 10 107 6.4 25.7 0.00 0.00 0.00 90 962.0
20260901051452 10 142 6.4 19.3 0.00 0.00 0.00 90 962.1
20260901050952 10 94 4.8 19.3 0.00 0.00 0.00 90 962.1
20260901050452 10 153 4.8 14.5 0.00 0.00 0.00 91 962.3
20260901045952 10 107 4.8 16.1 0.00 0.00 0.00 92 962.2
20260901045452 9 133 4.8 16.1 0.00 0.00 0.00 94 962.2
20260901044952 8 305 4.8 16.1 0.00 0.00 0.00 96 962.4
20260901044452 8 139 4.8 16.1 0.00 0.00 0.00 97 962.3
20260901043952 7 76 4.8 17.7 0.00 0.00 0.00 98 962.2
20260901043452 7 117 4.8 19.3 0.00 0.00 0.00 99 962.1
20260901042952 6 91 4.8 19.3 0.00 0.00 0.00 10 962.1
20260901042452 6 37 4.8 17.7 0.00 0.00 0.00 10 962.0
20260901041952 6 111 4.8 17.7 0.00 0.00 0.00 10 962.1
20260901041452 6 106 4.8 17.7 0.00 0.00 0.00 10 962.1
20260901040952 6 94 4.8 12.9 0.00 0.00 0.00 10 962.1
20260901040452 6 113 4.8 11.3 0.00 0.00 0.00 10 962.0
20260901035951 6 84 4.8 19.3 0.00 0.00 0.00 10 962.1
20260901035451 6 91 4.8 19.3 0.00 0.00 0.00 10 962.1
20260901034951 6 136 4.8 14.5 0.00 0.00 0.00 10 962.0
20260901034451 6 111 3.2 12.9 0.00 0.00 0.00 10 962.0
20260901033951 6 101 3.2 11.3 0.00 0.00 0.00 10 962.1
20260901033451 6 64 3.2 11.3 0.00 0.00 0.00 10 962.0
20260901032951 6 97 3.2 14.5 0.00 0.00 0.00 10 961.9
20260901032451 6 104 3.2 14.5 0.00 0.00 0.00 10 961.9
20260901031951 6 97 3.2 14.5 0.00 0.00 0.00 10 961.9
20260901031451 6 128 3.2 14.5 0.00 0.00 0.00 10 961.8
20260901030951 6 99 3.2 14.5 0.00 0.00 0.00 10 961.8
20260901030451 6 32 3.2 16.1 0.00 0.00 0.00 10 961.8
20260901025951 6 105 3.2 16.1 0.00 0.00 0.00 10 961.8
20260901025451 6 182 3.2 16.1 0.00 0.00 0.00 10 961.8
20260901024951 6 59 3.2 12.9 0.00 0.00 0.00 10 961.7
20260901024451 6 133 3.2 11.3 0.00 0.00 0.00 10 961.8
20260901023951 6 101 3.2 12.9 0.00 0.00 0.00 10 961.8
20260901023451 6 152 3.2 12.9 0.00 0.00 0.00 10 961.7
20260901022950 6 150 3.2 14.5 0.00 0.00 0.00 10 961.7
20260901022450 6 19 3.2 14.5 0.00 0.00 0.00 10 961.6
20260901021950 6 80 4.8 14.5 0.00 0.00 0.00 10 961.6
20260901021450 6 123 4.8 17.7 0.00 0.00 0.00 10 961.6
20260901020950 6 89 4.8 19.3 0.00 0.00 0.00 10 961.6
20260901020450 6 147 4.8 19.3 0.00 0.00 0.00 10 961.5
20260901015950 6 89 4.8 16.1 0.00 0.00 0.00 10 961.4
20260901015450 6 142 4.8 16.1 0.00 0.00 0.00 10 961.4
20260901014950 6 142 4.8 12.9 0.00 0.00 0.00 10 961.3
20260901014450 6 114 4.8 17.7 0.00 0.00 0.00 10 961.3
20260901013950 6 129 4.8 17.7 0.00 0.00 0.00 10 961.3
20260901013450 6 128 4.8 17.7 0.00 0.00 0.00 10 961.3
20260901012949 6 98 4.8 17.7 0.00 0.00 0.00 10 961.3
20260901012449 6 138 6.4 24.1 0.00 0.00 0.00 10 961.2
20260901011949 6 43 6.4 24.1 0.00 0.00 0.00 10 961.3
20260901011449 6 162 6.4 22.5 0.00 0.00 0.00 10 961.2
20260901010949 7 228 8.0 22.5 0.00 0.00 0.00 99 961.3
20260901010449 7 64 6.4 20.9 0.00 0.00 0.00 99 961.2
20260901005949 7 130 6.4 20.9 0.00 0.00 0.00 10 961.3
20260901005449 7 91 6.4 20.9 0.00 0.00 0.00 99 961.3
20260901004949 7 102 6.4 20.9 0.00 0.00 0.00 99 961.3
20260901004449 7 0 8.0 22.5 0.00 0.00 0.00 99 961.3
20260901003949 7 107 8.0 25.7 0.00 0.00 0.00 99 961.3
20260901003449 7 134 6.4 25.7 0.00 0.00 0.00 99 961.3